x

Isle Of Shoals, Nh (iosn3) Weather Station

9:00 - Mon 15th Sep 2014 All times are EDT. -4 hours from GMT.

  • Wind
    15mph
  • Ar Temp 59°f
  • Sea Pressure 1019.8mb
  • Isle Of Shoals, Nh
  • Isle Of Shoals, Nh

More Historic Weather Station data

Upgrade to MSW Pro to gain access to the past 30 days of data for over 8000 Wavebouys and Weather Stations around the globe.

Join Pro

Comparision Forecast

View Surf forecast
   
Seg 09/15 9:00 15
mph
1019.8mb 59f
8:00 9
mph
1019.9mb 60f
7:00 10
mph
1019.6mb 59f
6:00 11
mph
1019.8mb 59f
5:00 10 11 mph 1019.6mb 59f
4:00 8
mph
1020.1mb 59f
3:00 8
mph
1020.5mb 58f
2:00 5 6 mph 1020.9mb 57f
1:00 5 6 mph 1021.6mb 55f
12:00 8 9 mph 1022mb 54f
11:00 6 7 mph 1022.7mb 54f
10:00 7
mph
1023.1mb 52f
9:00 7 8 mph 1023.1mb 51f
8:00 7
mph
1023.2mb 51f
7:00 10 11 mph 1023.5mb 52f
6:00 14 15 mph 1023.3mb 50f
5:00 9 11 mph 1023.1mb 52f
4:00 13 15 mph 1022.4mb 53f
3:00 15 17 mph 1022.5mb 54f
2:00 18 20 mph 1022.4mb 54f
1:00 21 25 mph 1022.1mb 54f
12:00 22 24 mph 1022.1mb 55f
Dom 09/14 11:00 21 23 mph 1022.1mb 56f
10:00 14
mph
1022.3mb 56f
9:00 15 16 mph 1022.3mb 57f
8:00 16 17 mph 1022mb 59f
7:00 14 15 mph 1021.5mb 60f
6:00 9 10 mph 1021.4mb 61f
5:00 9
mph
1021.3mb 61f
4:00 7
mph
1021.2mb 60f
3:00 8 9 mph 1021mb 59f
2:00 9 11 mph 1021.2mb 58f
1:00 13 15 mph 1021.8mb 57f
12:00 8 10 mph 1022.1mb 55f
11:00 14 16 mph 1022.2mb 53f
10:00 17 21 mph 1022.5mb 52f
9:00 22 24 mph 1022.2mb 51f
8:00 21 24 mph 1021.9mb 51f
7:00 18 22 mph 1021.4mb 52f
6:00 23 29 mph 1020.1mb 53f
5:00 23 25 mph 1019.2mb 55f
4:00 17 18 mph 1019mb 56f
3:00 16 17 mph 1018.8mb 56f
2:00 9 10 mph 1018.6mb 56f
1:00 15 16 mph 1018.7mb 56f
12:00 13 14 mph 1018.9mb 57f
Sáb 09/13 11:00 10 11 mph 1019.2mb 58f
10:00 6 7 mph 1019.4mb 59f
9:00 11 13 mph 1019.1mb 59f
8:00 21 23 mph 1018.9mb 58f
7:00 20 21 mph 1020.3mb 57f
6:00 20 21 mph 1022.3mb 57f
5:00 21 22 mph 1021.6mb 58f
4:00 16 18 mph 1021.4mb 59f
3:00 17 20 mph 1021.5mb 59f
2:00 17 20 mph 1022.5mb 58f
1:00 21 23 mph 1023.5mb 58f
12:00 22 23 mph 1023.7mb 58f
11:00 24 28 mph 1023.9mb 58f
10:00 24 25 mph 1024.2mb 58f
9:00 21 23 mph 1024.6mb 58f
8:00 20 22 mph 1024.9mb 57f
7:00 22 24 mph 1025.1mb 56f
6:00 22 25 mph 1024.2mb 56f
5:00 25 29 mph 1023.8mb 55f
4:00 24 28 mph 1023.9mb 55f
3:00 21 24 mph 1023.9mb 55f
2:00 20 22 mph 1024.3mb 55f
1:00 20 22 mph 1024.1mb 56f
12:00 18 20 mph 1023.8mb 57f
Sex 09/12 11:00 17 20 mph 1023.2mb 58f
10:00 18 21 mph 1022.5mb 60f
9:00  -  1 mph 1022.1mb 61f
8:00  -  1 mph 1021.2mb 61f
7:00  -  1 mph 1020.6mb 61f
6:00 6
mph
1019.9mb 61f
5:00 6 7 mph 1019.5mb 60f
4:00 7
mph
1019.1mb 60f
3:00 8
mph
1019mb 60f
2:00 8
mph
1018.4mb 59f
1:00 3
mph
1018.7mb 60f
12:00 3 5 mph 1018.6mb 59f
11:00 6 7 mph 1018.5mb 59f
10:00 13 14 mph 1018.4mb 58f
9:00 20 22 mph 1017.3mb 57f
8:00 26 29 mph 1016.2mb 56f
7:00 22 26 mph 1015.6mb 57f
6:00 22 23 mph 1014.6mb 58f
5:00 24 26 mph 1013.5mb 60f
4:00 21 23 mph 1012.8mb 62f
3:00 18 22 mph 1012.4mb 64f